Location: Camp Creek
(33.9000°N, 111.8167°W)
Time: 04:58:47
(UTC-07:00)

DELTA 2 R/B (1) - Visible Passes

Search period start: 25 July 2016 00:00
Search period end: 04 August 2016 00:00
Orbit: 789 x 804 km, 39.6° (Epoch: 24 July)

Date Brightness Start Highest point End Pass type
(mag) Time Alt. Az. Time Alt. Az. Time Alt. Az.
25 Jul 5.1 04:08:06 15° S 04:11:27 25° SE 04:15:55 10° E visible
26 Jul 5.1 03:38:59 20° SSE 03:40:42 23° SE 03:44:57 10° E visible
27 Jul 5.2 03:09:50 20° SE 03:09:58 20° SE 03:13:59 10° E visible
27 Jul 3.7 04:50:37 11° WSW 04:55:53 76° SSE 05:01:29 10° ENE visible
28 Jul 5.6 02:40:38 17° ESE 02:40:38 17° ESE 02:42:58 10° E visible
28 Jul 3.6 04:21:25 22° SW 04:25:06 71° SSE 04:30:40 10° ENE visible
29 Jul 6.0 02:11:24 11° ESE 02:11:24 11° ESE 02:11:54 10° E visible
29 Jul 3.6 03:52:10 37° SW 03:54:18 66° SSE 03:59:51 10° ENE visible
30 Jul 3.6 03:22:53 57° S 03:23:32 61° SSE 03:29:01 10° ENE visible
30 Jul 4.1 05:04:35 10° W 05:10:04 56° NNW 05:15:35 10° ENE visible
31 Jul 4.0 02:53:35 51° ESE 02:53:35 51° ESE 02:58:12 10° ENE visible
31 Jul 4.0 04:34:21 13° W 04:39:14 58° NNW 04:44:46 10° ENE visible
01 Aug 4.9 02:24:15 32° E 02:24:15 32° E 02:27:22 10° ENE visible
01 Aug 3.9 04:05:01 23° W 04:08:24 61° NNW 04:13:57 10° ENE visible
02 Aug 5.6 01:54:54 19° E 01:54:54 19° E 01:56:31 10° ENE visible
02 Aug 3.8 03:35:40 39° W 03:37:35 63° NNW 03:43:08 10° ENE visible
03 Aug 6.2 01:25:33 11° ENE 01:25:33 11° ENE 01:25:40 10° ENE visible
03 Aug 3.7 03:06:19 63° NW 03:06:46 66° NNW 03:12:19 10° ENE visible
03 Aug 4.5 04:48:22 10° WNW 04:53:44 46° N 04:59:06 10° ENE visible
